AFR18L LFPG-LFBO

Flight info

Callsign AFR18L
Flight time 0h 59m
Altitude 35000
Route ERIXU DCT ETAMO DCT GUERE DCT NARAK
Aircraft A320/M-SDE3FGHIRWY/LB1

Departure

Time 2026-05-08 21:19
Airport Charles de Gaulle International Airport (LFPG)

Arrival

Time 2026-05-08 22:19
Airport Toulouse-Blagnac Airport (LFBO)
Time Latitude Longitude Altitude Speed Heading
2026-05-08 20:31 49.00564 2.56736 364 ft 0 kts 177°
2026-05-08 21:01 49.00575 2.56735 362 ft 2 kts 179°
2026-05-08 21:01 49.00592 2.56735 359 ft 2 kts 183°
2026-05-08 21:01 49.00608 2.56736 359 ft 2 kts 192°
2026-05-08 21:01 49.00623 2.56748 361 ft 2 kts 263°
2026-05-08 21:02 49.00623 2.56758 361 ft 0 kts 264°
2026-05-08 21:05 49.00622 2.56745 361 ft 4 kts 264°
2026-05-08 21:05 49.00617 2.56639 354 ft 17 kts 265°
2026-05-08 21:06 49.00606 2.56436 356 ft 20 kts 268°
2026-05-08 21:06 49.00595 2.56228 354 ft 20 kts 265°
2026-05-08 21:06 49.00572 2.56029 360 ft 15 kts 247°
2026-05-08 21:06 49.00566 2.55901 363 ft 9 kts 279°
2026-05-08 21:07 49.00568 2.55879 358 ft 0 kts 275°
2026-05-08 21:07 49.00569 2.55872 354 ft 5 kts 275°
2026-05-08 21:07 49.00563 2.55743 363 ft 5 kts 264°
2026-05-08 21:07 49.00561 2.55714 357 ft 0 kts 266°
2026-05-08 21:13 49.00558 2.55655 354 ft 16 kts 264°
2026-05-08 21:13 49.00554 2.55515 354 ft 12 kts 268°
2026-05-08 21:13 49.00525 2.55373 360 ft 19 kts 231°
2026-05-08 21:14 49.00432 2.55338 359 ft 11 kts 172°
2026-05-08 21:14 49.00352 2.55370 362 ft 12 kts 165°
2026-05-08 21:14 49.00279 2.55401 356 ft 10 kts 163°
2026-05-08 21:14 49.00215 2.55431 360 ft 9 kts 162°
2026-05-08 21:15 49.00137 2.55467 364 ft 15 kts 165°
2026-05-08 21:15 49.00048 2.55502 354 ft 12 kts 166°
2026-05-08 21:15 48.99973 2.55531 361 ft 10 kts 162°
2026-05-08 21:15 48.99896 2.55591 354 ft 14 kts 149°
2026-05-08 21:16 48.99843 2.55702 354 ft 13 kts 109°
2026-05-08 21:16 48.99816 2.55844 354 ft 15 kts 105°
2026-05-08 21:16 48.99786 2.55993 362 ft 14 kts 122°
2026-05-08 21:16 48.99754 2.56030 358 ft 0 kts 164°
2026-05-08 21:17 48.99692 2.56035 354 ft 12 kts 174°
2026-05-08 21:18 48.99620 2.56054 354 ft 8 kts 143°
2026-05-08 21:18 48.99612 2.56101 359 ft 1 kts 83°
2026-05-08 21:18 48.99619 2.56235 357 ft 32 kts 85°
2026-05-08 21:18 48.99660 2.56968 355 ft 103 kts 85°
2026-05-08 21:19 48.99739 2.58343 360 ft 155 kts 84°
2026-05-08 21:19 48.99813 2.60055 884 ft 164 kts 87°
2026-05-08 21:19 48.99803 2.61785 1608 ft 167 kts 92°
2026-05-08 21:19 48.99702 2.63561 2377 ft 169 kts 97°
2026-05-08 21:20 48.99511 2.65329 3124 ft 169 kts 101°
2026-05-08 21:20 48.99494 2.67189 3547 ft 187 kts 83°
2026-05-08 21:20 48.99740 2.69253 3850 ft 209 kts 79°
2026-05-08 21:20 49.00032 2.71517 4230 ft 229 kts 80°
2026-05-08 21:21 49.00313 2.74029 4675 ft 252 kts 82°
2026-05-08 21:21 49.00563 2.76749 5399 ft 264 kts 84°
2026-05-08 21:21 49.00537 2.79579 6199 ft 272 kts 97°
2026-05-08 21:21 49.00291 2.82466 7043 ft 278 kts 99°
2026-05-08 21:22 48.99991 2.85400 7896 ft 283 kts 100°
2026-05-08 21:22 48.99604 2.88321 8731 ft 288 kts 110°
2026-05-08 21:22 48.98613 2.90956 9556 ft 290 kts 135°
2026-05-08 21:22 48.97004 2.92761 10367 ft 289 kts 159°
2026-05-08 21:23 48.95028 2.93449 10878 ft 301 kts 182°
2026-05-08 21:23 48.92955 2.92720 11265 ft 315 kts 209°
2026-05-08 21:23 48.91140 2.90812 11936 ft 321 kts 218°
2026-05-08 21:23 48.89348 2.88747 12711 ft 326 kts 218°
2026-05-08 21:24 48.87526 2.86655 13472 ft 331 kts 218°
2026-05-08 21:24 48.85678 2.84542 14193 ft 335 kts 218°
2026-05-08 21:24 48.83827 2.82433 14861 ft 339 kts 218°
2026-05-08 21:24 48.81935 2.80284 15554 ft 342 kts 218°
2026-05-08 21:25 48.80022 2.78119 16243 ft 345 kts 218°
2026-05-08 21:25 48.78094 2.75935 16935 ft 348 kts 218°
2026-05-08 21:25 48.76148 2.73726 17647 ft 351 kts 219°
2026-05-08 21:25 48.74190 2.71500 18313 ft 354 kts 219°
2026-05-08 21:26 48.72211 2.69255 18846 ft 358 kts 219°
2026-05-08 21:26 48.70206 2.66985 19069 ft 361 kts 219°
2026-05-08 21:26 48.68181 2.64697 19598 ft 365 kts 219°
2026-05-08 21:26 48.66166 2.62421 20137 ft 369 kts 219°
2026-05-08 21:27 48.64097 2.60085 20655 ft 373 kts 219°
2026-05-08 21:27 48.62008 2.57725 21167 ft 378 kts 218°
2026-05-08 21:27 48.59889 2.55341 21685 ft 382 kts 218°
2026-05-08 21:27 48.57747 2.52934 22179 ft 386 kts 218°
2026-05-08 21:28 48.55580 2.50500 22664 ft 391 kts 218°
2026-05-08 21:28 48.53390 2.48039 23128 ft 395 kts 218°
2026-05-08 21:28 48.51174 2.45548 23572 ft 399 kts 218°
2026-05-08 21:28 48.48932 2.43036 24001 ft 403 kts 218°
2026-05-08 21:29 48.46700 2.40543 24418 ft 406 kts 218°
2026-05-08 21:29 48.44428 2.38008 24844 ft 408 kts 218°
2026-05-08 21:29 48.42137 2.35456 25278 ft 410 kts 218°
2026-05-08 21:29 48.39839 2.32896 25709 ft 412 kts 218°
2026-05-08 21:30 48.37530 2.30328 26141 ft 414 kts 218°
2026-05-08 21:30 48.35208 2.27749 26557 ft 416 kts 218°
2026-05-08 21:30 48.32809 2.25292 26963 ft 419 kts 211°
2026-05-08 21:30 48.30145 2.23470 27357 ft 423 kts 200°
2026-05-08 21:31 48.27312 2.22438 27731 ft 427 kts 188°
2026-05-08 21:31 48.24333 2.22231 28122 ft 431 kts 178°
2026-05-08 21:31 48.21345 2.22809 28490 ft 434 kts 171°
2026-05-08 21:31 48.18354 2.23548 28876 ft 436 kts 171°
2026-05-08 21:32 48.15355 2.24283 29273 ft 438 kts 172°
2026-05-08 21:32 48.12337 2.25016 29647 ft 441 kts 172°
2026-05-08 21:32 48.09304 2.25746 30015 ft 443 kts 173°
2026-05-08 21:32 48.06224 2.26133 30246 ft 446 kts 179°
2026-05-08 21:33 48.03141 2.26326 30366 ft 453 kts 179°
2026-05-08 21:33 47.99977 2.26521 30512 ft 458 kts 179°
2026-05-08 21:33 47.96782 2.26717 30750 ft 460 kts 179°
2026-05-08 21:33 47.93579 2.26913 31034 ft 461 kts 179°
2026-05-08 21:34 47.90377 2.27113 31430 ft 460 kts 179°
2026-05-08 21:34 47.87187 2.27317 31829 ft 458 kts 179°
2026-05-08 21:34 47.84011 2.27523 32234 ft 456 kts 179°
2026-05-08 21:34 47.80848 2.27731 32616 ft 455 kts 179°
2026-05-08 21:35 47.77692 2.27936 32998 ft 453 kts 179°
2026-05-08 21:35 47.74595 2.28132 33442 ft 450 kts 179°
2026-05-08 21:35 47.71476 2.28329 33883 ft 448 kts 179°
2026-05-08 21:35 47.68371 2.28522 34258 ft 446 kts 179°
2026-05-08 21:36 47.65275 2.28712 34608 ft 444 kts 179°
2026-05-08 21:36 47.62190 2.28903 34926 ft 444 kts 179°
2026-05-08 21:36 47.59111 2.29095 35015 ft 442 kts 179°
2026-05-08 21:37 47.52995 2.29477 35024 ft 438 kts 179°
2026-05-08 21:37 47.46953 2.29858 35027 ft 437 kts 179°
2026-05-08 21:38 47.40874 2.30242 35019 ft 437 kts 179°
2026-05-08 21:38 47.34795 2.30618 35016 ft 436 kts 178°
2026-05-08 21:39 47.28751 2.30999 35022 ft 434 kts 178°
2026-05-08 21:39 47.22765 2.31369 35026 ft 433 kts 178°
2026-05-08 21:40 47.16743 2.31739 35020 ft 433 kts 178°
2026-05-08 21:40 47.10732 2.32116 35028 ft 432 kts 178°
2026-05-08 21:41 47.01749 2.32667 35029 ft 430 kts 178°
2026-05-08 21:41 46.95812 2.33024 35029 ft 429 kts 178°
2026-05-08 21:42 46.89847 2.33383 35023 ft 429 kts 178°
2026-05-08 21:42 46.83891 2.33428 35024 ft 428 kts 187°
2026-05-08 21:43 46.78101 2.31467 35019 ft 428 kts 194°
2026-05-08 21:43 46.72348 2.29238 35015 ft 428 kts 194°
2026-05-08 21:44 46.67173 2.27257 35009 ft 428 kts 194°
2026-05-08 21:44 46.61418 2.25056 35007 ft 428 kts 194°
2026-05-08 21:45 46.55660 2.22859 35005 ft 428 kts 194°
2026-05-08 21:45 46.49906 2.20660 35006 ft 428 kts 194°
2026-05-08 21:46 46.44187 2.18480 35006 ft 428 kts 194°
2026-05-08 21:46 46.38430 2.16288 35009 ft 428 kts 194°
2026-05-08 21:47 46.32667 2.14104 35011 ft 428 kts 193°
2026-05-08 21:47 46.26906 2.11929 35018 ft 428 kts 193°
2026-05-08 21:48 46.21181 2.09768 35023 ft 428 kts 193°
2026-05-08 21:48 46.15337 2.08261 35025 ft 427 kts 186°
2026-05-08 21:49 46.09451 2.07168 35040 ft 426 kts 186°
2026-05-08 21:49 46.03573 2.06085 35042 ft 425 kts 186°
2026-05-08 21:50 45.97710 2.05012 35036 ft 425 kts 186°
2026-05-08 21:50 45.91887 2.03944 35041 ft 424 kts 186°
2026-05-08 21:51 45.86037 2.02861 35046 ft 423 kts 186°
2026-05-08 21:51 45.80199 2.01793 35049 ft 423 kts 186°
2026-05-08 21:52 45.74362 2.00723 35055 ft 423 kts 186°
2026-05-08 21:52 45.68575 1.99649 35055 ft 422 kts 186°
2026-05-08 21:53 45.62759 1.98592 35048 ft 421 kts 186°
2026-05-08 21:53 45.56951 1.97549 35044 ft 420 kts 186°
2026-05-08 21:54 45.51153 1.96496 35048 ft 420 kts 187°
2026-05-08 21:54 45.45400 1.95445 35040 ft 419 kts 187°
2026-05-08 21:55 45.39617 1.94398 35040 ft 419 kts 187°
2026-05-08 21:56 45.30928 1.92835 35028 ft 420 kts 188°
2026-05-08 21:56 45.28014 1.92313 34284 ft 426 kts 187°
2026-05-08 21:56 45.25038 1.91777 33041 ft 436 kts 187°
2026-05-08 21:56 45.22033 1.91239 32447 ft 431 kts 187°
2026-05-08 21:57 45.19077 1.90709 32100 ft 427 kts 187°
2026-05-08 21:57 45.16176 1.90187 31826 ft 425 kts 188°
2026-05-08 21:57 45.13256 1.89661 31255 ft 421 kts 187°
2026-05-08 21:57 45.10366 1.89142 30666 ft 416 kts 187°
2026-05-08 21:58 45.07506 1.88629 30072 ft 413 kts 187°
2026-05-08 21:58 45.04669 1.88120 29438 ft 409 kts 187°
2026-05-08 21:58 45.01868 1.87620 28880 ft 403 kts 187°
2026-05-08 21:58 44.99105 1.87129 28321 ft 398 kts 187°
2026-05-08 21:59 44.96408 1.86651 27782 ft 394 kts 187°
2026-05-08 21:59 44.93706 1.86173 27238 ft 389 kts 187°
2026-05-08 21:59 44.91033 1.85700 26703 ft 385 kts 187°
2026-05-08 21:59 44.88391 1.85234 26172 ft 381 kts 187°
2026-05-08 22:00 44.85772 1.84773 25656 ft 377 kts 188°
2026-05-08 22:00 44.83182 1.84314 25154 ft 373 kts 188°
2026-05-08 22:00 44.80615 1.83857 24663 ft 370 kts 188°
2026-05-08 22:00 44.78075 1.83408 24185 ft 366 kts 188°
2026-05-08 22:01 44.75557 1.82964 23712 ft 363 kts 188°
2026-05-08 22:01 44.73066 1.82525 23216 ft 359 kts 188°
2026-05-08 22:01 44.70637 1.82096 22779 ft 354 kts 188°
2026-05-08 22:01 44.68211 1.81669 22357 ft 349 kts 188°
2026-05-08 22:02 44.65818 1.81247 21937 ft 345 kts 188°
2026-05-08 22:02 44.63451 1.80831 21517 ft 341 kts 188°
2026-05-08 22:02 44.61100 1.80419 21103 ft 339 kts 188°
2026-05-08 22:02 44.58766 1.80010 20681 ft 337 kts 189°
2026-05-08 22:03 44.56445 1.79601 20248 ft 335 kts 189°
2026-05-08 22:03 44.54142 1.79192 19823 ft 333 kts 189°
2026-05-08 22:03 44.51881 1.78789 19389 ft 331 kts 189°
2026-05-08 22:03 44.49597 1.78382 18949 ft 330 kts 189°
2026-05-08 22:04 44.47325 1.77984 18504 ft 329 kts 188°
2026-05-08 22:04 44.45059 1.77591 18033 ft 328 kts 188°
2026-05-08 22:04 44.42802 1.77204 17585 ft 326 kts 188°
2026-05-08 22:04 44.40560 1.76820 17134 ft 324 kts 189°
2026-05-08 22:05 44.38333 1.76435 16706 ft 322 kts 189°
2026-05-08 22:05 44.36117 1.76050 16277 ft 320 kts 189°
2026-05-08 22:05 44.33940 1.75667 15857 ft 319 kts 188°
2026-05-08 22:05 44.31740 1.75268 15433 ft 318 kts 191°
2026-05-08 22:06 44.29617 1.74468 15012 ft 316 kts 202°
2026-05-08 22:06 44.27627 1.73077 14545 ft 325 kts 213°
2026-05-08 22:06 44.25749 1.71281 14064 ft 328 kts 214°
2026-05-08 22:06 44.23873 1.69476 13539 ft 328 kts 214°
2026-05-08 22:07 44.21998 1.67678 13046 ft 326 kts 214°
2026-05-08 22:07 44.20130 1.65891 12573 ft 325 kts 214°
2026-05-08 22:07 44.18270 1.64115 12091 ft 324 kts 214°
2026-05-08 22:07 44.16442 1.62370 11620 ft 322 kts 214°
2026-05-08 22:08 44.14599 1.60611 11152 ft 321 kts 214°
2026-05-08 22:08 44.12763 1.58860 10683 ft 319 kts 214°
2026-05-08 22:08 44.10941 1.57124 10371 ft 313 kts 213°
2026-05-08 22:08 44.09197 1.55462 10221 ft 294 kts 213°
2026-05-08 22:09 44.07545 1.53887 9765 ft 284 kts 213°
2026-05-08 22:09 44.05934 1.52354 9588 ft 280 kts 213°
2026-05-08 22:09 44.04320 1.50823 9457 ft 280 kts 213°
2026-05-08 22:09 44.02711 1.49297 9316 ft 280 kts 213°
2026-05-08 22:10 44.01125 1.47791 8990 ft 279 kts 213°
2026-05-08 22:10 43.99523 1.46272 8614 ft 278 kts 213°
2026-05-08 22:10 43.97999 1.44638 8232 ft 277 kts 224°
2026-05-08 22:10 43.96749 1.42604 7843 ft 277 kts 230°
2026-05-08 22:11 43.95537 1.40536 7469 ft 276 kts 230°
2026-05-08 22:11 43.94326 1.38478 7092 ft 275 kts 230°
2026-05-08 22:11 43.93115 1.36431 6710 ft 274 kts 230°
2026-05-08 22:11 43.91922 1.34423 6336 ft 273 kts 229°
2026-05-08 22:12 43.90718 1.32394 5945 ft 272 kts 230°
2026-05-08 22:12 43.89516 1.30367 5569 ft 272 kts 230°
2026-05-08 22:12 43.88317 1.28340 5191 ft 272 kts 230°
2026-05-08 22:12 43.87117 1.26313 4816 ft 272 kts 229°
2026-05-08 22:13 43.85746 1.24537 4435 ft 269 kts 213°
2026-05-08 22:13 43.84210 1.23179 4295 ft 256 kts 211°
2026-05-08 22:13 43.82749 1.21879 4180 ft 243 kts 211°
2026-05-08 22:13 43.81332 1.20745 4121 ft 228 kts 199°
2026-05-08 22:14 43.80340 1.20370 4066 ft 219 kts 186°
2026-05-08 22:14 43.78860 1.20412 3940 ft 210 kts 167°
2026-05-08 22:14 43.77070 1.21389 3586 ft 207 kts 144°
2026-05-08 22:14 43.75932 1.22567 3361 ft 205 kts 142°
2026-05-08 22:15 43.74792 1.23751 3077 ft 205 kts 142°
2026-05-08 22:15 43.73671 1.24920 2802 ft 198 kts 142°
2026-05-08 22:15 43.72958 1.25666 2621 ft 189 kts 142°
2026-05-08 22:15 43.71975 1.26692 2415 ft 166 kts 141°
2026-05-08 22:16 43.71110 1.27596 2198 ft 146 kts 141°
2026-05-08 22:16 43.70335 1.28406 2006 ft 135 kts 141°
2026-05-08 22:16 43.69596 1.29179 1824 ft 131 kts 140°
2026-05-08 22:16 43.68637 1.30181 1594 ft 130 kts 140°
2026-05-08 22:17 43.68150 1.30690 1471 ft 130 kts 141°
2026-05-08 22:17 43.67437 1.31434 1283 ft 130 kts 141°
2026-05-08 22:17 43.66715 1.32188 1105 ft 130 kts 142°
2026-05-08 22:17 43.65997 1.32936 936 ft 129 kts 142°
2026-05-08 22:18 43.65282 1.33682 756 ft 129 kts 142°
2026-05-08 22:18 43.64564 1.34430 589 ft 129 kts 143°
2026-05-08 22:18 43.63676 1.35351 486 ft 95 kts 143°
2026-05-08 22:18 43.63381 1.35660 491 ft 62 kts 143°
2026-05-08 22:19 43.63168 1.35884 488 ft 23 kts 142°
2026-05-08 22:19 43.63036 1.36025 487 ft 24 kts 142°
2026-05-08 22:19 43.62903 1.36163 484 ft 24 kts 144°
2026-05-08 22:19 43.62768 1.36300 490 ft 24 kts 143°
2026-05-08 22:20 43.62639 1.36436 489 ft 23 kts 143°
2026-05-08 22:20 43.62513 1.36567 487 ft 23 kts 143°
2026-05-08 22:20 43.62445 1.36707 489 ft 17 kts 84°
2026-05-08 22:20 43.62457 1.36845 494 ft 0 kts 81°
2026-05-08 22:21 43.62458 1.36861 484 ft 5 kts 82°
2026-05-08 22:21 43.62466 1.36943 494 ft 12 kts 84°
2026-05-08 22:21 43.62478 1.37079 493 ft 15 kts 83°
2026-05-08 22:22 43.62499 1.37223 492 ft 15 kts 62°
2026-05-08 22:22 43.62563 1.37341 492 ft 15 kts 53°
2026-05-08 22:22 43.62629 1.37458 486 ft 15 kts 39°
2026-05-08 22:22 43.62720 1.37445 487 ft 14 kts 323°
2026-05-08 22:23 43.62783 1.37376 489 ft 11 kts 321°
2026-05-08 22:23 43.62844 1.37316 489 ft 10 kts 330°
2026-05-08 22:23 43.62887 1.37365 484 ft 8 kts 60°
2026-05-08 22:23 43.62918 1.37397 495 ft 1 kts 39°
2026-05-08 22:24 43.62919 1.37398 487 ft 0 kts 40°